Regional Weather Roundup
Issued by NWS

Home | Current Version | Previous Version | Text Only | Print | Product List | Glossary On
Versions: 1 2 3 4 5 6 7 8 9 10 11 12 13 14 15 16 17 18 19 20 21 22 23 24 25 26 27
000
ASUS46 KPQR 312110
RWROR

OREGON REGIONAL WEATHER ROUNDUP
NATIONAL WEATHER SERVICE PORTLAND OR
200 PM PDT TUE MAY 31 2016

NOTE: "FAIR" INDICATES FEW OR NO CLOUDS BELOW 12,000 FEET WITH
NO SIGNIFICANT WEATHER AND/OR OBSTRUCTIONS TO VISIBILITY.

ORZ001>013-312200-
NORTHWEST OREGON


CITY           SKY/WX    TMP DP  RH WIND       PRES   REMARKS
ASTORIA        SUNNY     77  53  43 NW15      30.01F
NEWPORT        MOSUNNY   63  52  67 NW13      30.05F
PORTLAND       MOSUNNY   83  50  31 W8        29.97F
VANCOUVER WA   SUNNY     82  53  36 W9        29.96F
SCAPPOOSE      SUNNY     84  43  23 N5        29.97F
HILLSBORO      SUNNY     84  39  20 VRB3      29.97F
AURORA         MOSUNNY   82  45  27 CALM      29.98F
MCMINNVILLE    SUNNY     82  46  28 VRB5      29.99F
SALEM          SUNNY     82  49  31 VRB6      29.97F
CORVALLIS        N/A     84  50  30 CALM      30.00F
EUGENE         PTSUNNY   80  50  34 N13       29.99F
$$

ORZ021-028-312200-
SOUTHWEST OREGON


CITY           SKY/WX    TMP DP  RH WIND       PRES   REMARKS
NORTH BEND     SUNNY     68  52  56 N12G21    30.00F
BROOKINGS      MOSUNNY   72  49  44 SW5       29.92F
ROSEBURG       SUNNY     82  50  32 N7        29.96F
SEXTON SUMMIT  SUNNY     76  45  33 CALM      30.07F
MEDFORD        SUNNY     89  45  21 VRB7      29.91F
$$

ORZ014>016-041-312200-
COLUMBIA GORGE


CITY           SKY/WX    TMP DP  RH WIND       PRES   REMARKS
TROUTDALE      SUNNY     82  45  27 E7        29.96F
THE DALLES     SUNNY     85  26  11 VRB7      30.01F
$$

ORZ029>031-041-044-049-050-061>064-502-503-505>511-312200-
EASTERN OREGON


CITY           SKY/WX    TMP DP  RH WIND       PRES   REMARKS
REDMOND        SUNNY     80  24  12 NE9G18    30.06F
BEND           SUNNY     77  28  16 CALM      30.07F
PRINEVILLE     SUNNY     77  28  16 N8        30.07F
KLAMATH FALLS  SUNNY     80  36  20 VRB5      30.08F
LAKEVIEW       SUNNY     77  37  24 SW8       30.13F
HERMISTON      SUNNY     84  36  18 N8        30.03F
PENDLETON      SUNNY     80  33  18 VRB5      30.04F
JOHN DAY       SUNNY     77  22  13 CALM      30.09F
MEACHAM        SUNNY     70  23  17 NW5       30.12F
LA GRANDE      SUNNY     77  34  20 N9G16     30.08F
BAKER CITY     SUNNY     73  36  25 W8        30.10F
BURNS          SUNNY     74  23  15 VRB6      30.12F
ROME             N/A     79  22  12 NE9       30.09F
ONTARIO        SUNNY     79  26  14 CALM      30.05F
$$




USA.gov is the U.S. government's official web portal to all federal, state and local government web resources and services.